Spokane, WA

5:52 AM PDT on March 30, 2017 (GMT -0700)
Spokane International

Weather History for KGEG - November, 2012

Change the Weather History Date:

Saturday, November 10, 2012

  Actual Average Record
Temperature  
Mean Temperature 26 °F 38 °F  
Max Temperature 31 °F 44 °F 61 °F (1953)
Min Temperature 21 °F 31 °F 6 °F (2000)
Degree Days  
Heating Degree Days 39 27  
Month to date heating degree days 222 255  
Since 1 July heating degree days 828 1043  
Cooling Degree Days 0 0  
Month to date cooling degree days 0 0  
Year to date cooling degree days 535 450  
Moisture  
Dew Point 20 °F    
Average Humidity 78    
Maximum Humidity 92    
Minimum Humidity 63    
Precipitation  
Precipitation T in 0.08 in 1.02 in (1983)
Month to date precipitation 0.72 0.69  
Year to date precipitation 16.22 12.65  
Snow  
Snow T in 0.20 in 3.30 in (1945)
Month to date snowfall 2.9 1.1  
Since 1 July snowfall 2.9 1.2  
Since 1 September snowfall 2.9 1.2  
Snow Depth 2.00 in    
Sea Level Pressure  
Sea Level Pressure 30.08 in    
Wind  
Wind Speed 5 mph (WNW)    
Max Wind Speed 10 mph    
Max Gust Speed 13 mph    
Visibility 10 miles    
Events Snow    
T = Trace of Precipitation, MM = Missing Value Source: NWS Daily Summary

Daily Weather History Graph

Daily Weather History Graph

Search for Another Location

Airport or City:

Trip Planner

Search our weather history database for the weather conditions in past years. The results will help you decide how hot, cold, wet, or windy it might be!

Date:

Astronomy

Nov. 10, 2012 Rise Set
Actual Time 6:48 AM PST 4:18 PM PST
Civil Twilight 6:15 AM PST 4:52 PM PST
Nautical Twilight 5:38 AM PST 5:29 PM PST
Astronomical Twilight 5:02 AM PST 6:05 PM PST
Moon 2:45 AM PST (11/10) 2:20 PM PST (11/10)
Length of Visible Light 10h 36m
Length of Day
9h 30m
Waning Crescent, 13% of the Moon is Illuminated
Nov 10
Waning Crescent
Nov 13
New
Nov 20
First Quarter
Nov 28
Full
Dec 6
Last Quarter

Hourly Weather History & Observations

Time (PST) Temp. Windchill Dew Point Humidity Pressure Visibility Wind Dir Wind Speed Gust Speed Precip Events Conditions
12:53 AM 25.0 °F 20.7 °F 21.9 °F 88% 29.93 in 9.0 mi North 3.5 mph - 0.00 in Snow Light Snow
1:53 AM 26.1 °F 20.5 °F 21.9 °F 84% 29.95 in 9.0 mi North 4.6 mph - 0.00 in Snow Light Snow
2:53 AM 25.0 °F 18.1 °F 21.9 °F 88% 29.95 in 10.0 mi North 5.8 mph - 0.00 in   Overcast
3:53 AM 24.1 °F 18.2 °F 21.0 °F 88% 29.97 in 10.0 mi ENE 4.6 mph - N/A   Scattered Clouds
4:53 AM 21.9 °F 17.2 °F 19.0 °F 89% 29.99 in 10.0 mi North 3.5 mph - N/A   Scattered Clouds
5:53 AM 21.9 °F - 19.0 °F 89% 29.99 in 10.0 mi Calm Calm - N/A   Scattered Clouds
6:53 AM 21.9 °F - 19.0 °F 89% 30.01 in 10.0 mi Calm Calm - N/A   Scattered Clouds
7:53 AM 23.0 °F - 19.0 °F 85% 30.02 in 10.0 mi Calm Calm - N/A   Mostly Cloudy
8:53 AM 25.0 °F - 19.9 °F 81% 30.04 in 10.0 mi Calm Calm - N/A   Mostly Cloudy
9:53 AM 26.1 °F 20.5 °F 19.9 °F 78% 30.06 in 10.0 mi NNE 4.6 mph - N/A   Mostly Cloudy
10:53 AM 27.0 °F 19.5 °F 19.0 °F 72% 30.07 in 10.0 mi North 6.9 mph - N/A   Mostly Cloudy
11:53 AM 28.0 °F 20.8 °F 19.0 °F 69% 30.07 in 10.0 mi NNE 6.9 mph - N/A   Scattered Clouds
12:53 PM 28.9 °F 23.9 °F 19.0 °F 67% 30.08 in 10.0 mi North 4.6 mph - N/A   Scattered Clouds
1:53 PM 30.0 °F 25.2 °F 19.0 °F 64% 30.09 in 10.0 mi North 4.6 mph - N/A   Scattered Clouds
2:53 PM 30.0 °F 26.5 °F 19.0 °F 64% 30.11 in 10.0 mi NW 3.5 mph - N/A   Scattered Clouds
3:53 PM 28.9 °F 22.8 °F 19.9 °F 69% 30.14 in 10.0 mi WSW 5.8 mph - N/A   Mostly Cloudy
4:53 PM 26.1 °F 19.4 °F 19.9 °F 78% 30.16 in 10.0 mi WSW 5.8 mph - N/A   Mostly Cloudy
5:53 PM 26.1 °F 20.5 °F 21.0 °F 81% 30.17 in 10.0 mi SSW 4.6 mph - N/A   Overcast
6:53 PM 25.0 °F 18.1 °F 19.0 °F 78% 30.18 in 10.0 mi South 5.8 mph - N/A   Mostly Cloudy
7:53 PM 24.8 °F 19.1 °F 19.4 °F 80% 30.09 in 10.0 mi South 4.6 mph - N/A   Mostly Cloudy
8:53 PM 24.1 °F 17.0 °F 19.0 °F 81% 30.19 in 10.0 mi SSW 5.8 mph - N/A   Scattered Clouds
9:53 PM 24.1 °F 15.2 °F 19.0 °F 81% 30.20 in 10.0 mi SSW 8.1 mph - N/A   Scattered Clouds
10:53 PM 24.1 °F 14.4 °F 19.9 °F 84% 30.21 in 10.0 mi SW 9.2 mph - N/A   Mostly Cloudy
11:31 PM 24.8 °F 15.3 °F 19.4 °F 80% 30.14 in 10.0 mi SW 9.2 mph - N/A   Mostly Cloudy
11:53 PM 25.0 °F 15.5 °F 19.9 °F 81% 30.22 in 10.0 mi SW 9.2 mph - N/A   Scattered Clouds